Theta_e
313 313 312 312 311 311 311 310 310 309 309 309 308 308 307 307 306 306 305 305 305 304 304 304 304 304 304 304 304 304 304 304 305 305 306 306 306 307 307 308 308 308 308 309 309 309 309 309 310 310 310 310 310 310 310 310 309 309 309 308 309 309 310 311 310 310 311 310 309 309 309 309 309 308 308 307 306 307 307 306 306 304 304 306 308
312 312 311 311 310 309 309 309 308 308 308 307 307 306 306 305 304 304 303 303 303 303 303 302 302 302 302 302 302 301 302 302 302 302 302 302 302 303 303 303 303 303 303 304 304 304 305 305 306 306 307 307 308 308 309 309 309 309 308 307 307 307 307 309 310 309 310 310 309 309 309 309 308 308 307 307 306 306 306 306 305 303 303 305 307
311 310 310 310 309 309 308 307 307 306 306 305 305 304 303 303 303 302 302 302 302 301 301 301 301 301 300 300 300 300 300 300 300 300 300 300 300 300 300 300 300 300 300 301 301 301 301 301 302 302 303 304 304 305 306 307 308 308 308 307 306 306 306 306 308 308 308 308 308 308 308 308 307 307 307 307 306 306 306 305 304 303 303 305 307
310 309 309 309 308 307 306 305 305 304 304 304 303 302 302 302 301 301 301 301 301 300 300 300 300 300 300 299 299 299 299 299 299 299 299 299 299 299 299 299 299 299 299 299 299 299 300 300 300 300 301 302 302 302 303 305 306 307 307 307 306 306 305 304 305 306 306 306 307 307 306 306 306 306 306 307 306 305 305 304 304 304 304 305 305
308 308 308 308 306 305 304 304 303 303 303 302 302 301 301 301 301 300 300 300 300 300 300 299 299 299 299 299 299 299 298 298 298 298 298 298 298 298 298 298 298 298 298 298 299 299 299 299 299 300 300 300 301 301 302 303 304 305 306 306 306 305 304 303 303 304 304 305 305 306 306 306 306 306 306 306 306 305 305 304 303 304 304 304 304
306 306 305 305 305 304 303 303 303 302 302 301 301 301 301 301 300 300 300 300 300 299 299 299 299 298 298 298 298 298 298 297 297 297 297 297 297 297 297 297 297 297 297 297 297 297 298 298 298 299 299 300 300 301 301 302 303 303 304 305 305 304 303 302 302 303 303 304 304 305 305 305 306 306 305 305 305 305 304 303 303 303 303 303 304
305 304 303 303 303 303 303 302 302 302 301 301 301 301 301 300 300 300 300 299 299 299 299 298 298 298 298 297 297 297 297 297 297 297 297 297 296 296 296 296 296 297 296 296 296 296 296 296 297 297 298 299 299 300 300 302 302 303 303 304 304 303 302 302 302 302 303 303 303 304 305 305 305 305 305 305 304 304 304 303 303 303 303 303 303
304 303 302 302 302 302 302 302 302 301 301 301 301 301 300 300 300 299 299 298 298 298 298 298 297 297 297 297 297 297 297 297 296 296 296 296 296 296 296 296 296 296 296 296 296 296 296 296 296 296 296 297 297 298 299 300 302 302 303 303 303 302 301 301 302 302 302 302 303 303 304 304 304 304 304 304 304 304 303 303 302 302 303 302 302
302 302 301 301 302 302 301 301 301 301 301 300 300 300 299 299 299 298 298 298 298 297 297 297 297 297 297 297 297 297 297 296 296 296 296 296 296 296 296 296 296 296 296 296 295 295 295 295 295 295 295 295 295 296 297 299 300 301 301 302 302 301 301 301 301 302 301 301 302 302 302 303 303 303 303 304 303 303 303 302 301 301 301 300 300
301 301 301 301 301 301 301 300 300 300 299 299 299 299 298 298 298 298 297 297 297 297 297 297 296 296 296 296 296 296 296 296 296 296 295 295 295 295 295 295 295 295 295 295 295 295 294 294 294 294 294 294 294 294 295 296 298 300 301 302 302 301 299 300 301 302 301 300 301 301 301 302 302 302 302 303 302 302 301 301 300 299 299 298 297
301 300 300 300 300 300 300 299 299 299 299 298 298 298 298 297 297 297 297 297 296 296 296 296 296 296 296 296 296 296 296 296 296 295 295 295 295 295 295 295 295 294 294 294 294 294 294 294 294 294 294 294 294 294 294 295 296 298 299 301 301 300 299 299 300 301 301 300 300 301 300 300 301 301 301 301 301 300 300 300 299 299 298 297 295
300 300 300 300 300 299 299 299 298 298 298 298 297 297 297 297 296 296 296 296 296 296 296 296 296 296 296 296 296 296 295 295 295 295 295 294 294 294 294 294 294 294 294 293 293 293 293 293 293 294 294 294 294 294 295 295 296 298 299 300 300 299 298 298 299 300 301 301 301 301 300 300 300 300 300 300 300 300 300 299 299 298 297 296 296
299 299 299 299 299 298 298 298 298 297 297 297 297 297 296 296 296 296 296 296 296 296 296 295 295 295 295 295 295 295 295 295 295 295 294 294 294 293 293 294 294 294 293 293 293 292 293 293 293 293 294 294 295 295 296 296 297 298 299 299 299 298 297 297 298 299 301 301 301 302 302 300 299 300 300 299 299 299 299 299 298 297 296 295 295
299 299 298 298 298 298 298 297 297 297 297 296 296 296 296 296 296 296 295 295 295 295 295 295 295 295 295 295 295 295 295 295 294 294 294 294 293 293 293 293 293 293 293 292 292 292 292 293 294 294 294 295 295 295 296 297 298 298 298 298 298 297 297 297 297 298 299 300 300 301 302 301 300 300 299 299 299 299 299 298 298 297 296 295 293
298 298 298 297 297 297 297 297 297 297 296 296 296 296 296 295 295 295 295 295 295 295 294 294 294 294 294 294 294 294 294 294 294 294 293 293 292 292 292 292 292 292 292 292 292 292 292 294 295 295 295 295 295 296 296 297 298 297 297 297 296 296 295 296 297 297 298 299 300 300 300 301 300 299 299 298 298 298 297 297 296 295 295 293 291
297 297 297 297 297 297 297 297 296 296 296 296 296 295 295 295 295 295 294 294 294 294 294 294 294 294 294 294 294 294 294 294 293 293 293 292 291 291 291 291 291 292 292 292 292 292 292 294 295 295 295 295 296 296 297 297 297 296 296 295 295 295 295 295 296 296 297 298 299 299 299 299 299 298 298 298 297 296 295 295 294 293 292 291 289
297 297 297 297 297 296 296 296 296 296 295 295 295 295 295 294 294 294 294 294 294 293 293 293 293 293 293 293 293 293 293 293 292 292 292 291 291 291 291 291 291 291 291 291 291 292 292 293 294 295 295 295 296 296 296 296 296 295 295 295 294 294 294 295 295 295 296 297 297 298 298 298 298 298 297 296 296 295 294 294 294 293 291 290 288
297 297 297 296 296 296 296 295 295 295 295 294 294 294 294 293 293 293 293 293 293 293 293 293 293 293 293 292 292 292 292 293 292 292 291 291 290 290 290 290 290 290 290 291 291 292 292 292 293 294 295 295 296 296 296 296 295 295 295 294 294 294 294 294 295 295 295 296 296 297 297 297 297 297 296 295 295 294 293 294 294 293 291 289 288
297 296 296 296 295 295 295 295 294 294 294 293 293 293 293 292 292 292 292 292 292 292 292 292 292 292 292 292 292 291 292 292 292 291 291 291 290 290 290 290 290 290 290 290 291 292 292 292 292 293 295 296 296 296 296 296 295 295 294 294 294 294 294 294 294 294 294 295 295 296 296 296 296 296 295 294 294 293 293 293 293 293 291 289 288
296 296 295 295 295 295 294 294 294 293 293 293 292 292 292 292 292 291 291 291 291 291 291 291 291 291 291 291 291 291 291 291 291 291 291 291 291 290 290 290 289 290 290 290 291 291 292 292 293 293 295 296 296 296 296 295 295 294 294 294 294 294 293 294 294 293 293 294 294 294 294 294 294 295 294 293 292 291 292 292 292 292 291 289 287
296 295 295 295 294 294 293 293 292 292 292 292 291 291 291 291 291 291 291 291 290 290 290 290 290 290 291 290 290 290 290 290 290 290 290 290 290 291 290 290 290 290 290 291 291 292 292 293 293 294 295 295 295 295 295 295 294 294 294 294 294 294 294 293 293 292 292 292 292 292 292 292 293 293 292 291 290 290 290 290 290 290 290 289 288
295 295 294 294 293 293 292 292 291 291 291 291 291 291 291 290 290 290 290 290 290 290 290 289 289 290 290 290 290 290 290 289 289 290 289 289 290 290 291 291 290 290 291 291 291 292 292 293 294 294 294 294 295 295 295 294 294 294 294 294 294 293 293 292 292 291 291 291 291 290 290 291 291 291 290 290 290 289 289 289 289 288 288 288 288
295 294 293 293 292 292 291 291 291 291 291 290 290 290 290 290 290 289 289 289 289 289 289 289 289 289 289 289 289 289 289 289 289 289 289 289 289 289 290 291 290 290 291 291 292 292 293 293 294 294 294 294 294 294 294 294 293 294 294 293 293 292 292 291 291 291 290 290 290 290 290 290 290 290 289 289 289 288 288 288 288 287 287 287 287
293 293 292 291 291 291 291 290 290 290 290 290 290 290 289 289 289 289 289 289 289 289 289 289 288 289 289 289 289 289 289 288 288 289 288 288 289 289 289 290 290 290 290 291 291 292 292 293 293 292 293 293 293 293 293 293 293 293 292 292 291 291 291 291 290 290 289 289 289 289 289 289 289 289 289 289 288 288 288 287 287 287 287 287 286
292 291 291 291 290 290 290 290 290 290 289 289 289 289 289 289 289 289 288 288 288 288 288 288 288 288 288 288 288 288 288 288 288 288 288 288 288 288 289 289 290 290 289 289 290 290 291 291 291 291 291 292 292 292 293 293 293 292 291 291 290 290 290 290 290 289 289 289 289 289 289 289 289 288 288 288 288 287 287 287 287 287 287 286 286
291 291 290 290 290 290 290 289 289 289 289 289 289 289 288 288 288 288 288 288 288 288 288 288 288 288 288 288 288 288 288 288 288 288 288 288 288 288 288 289 289 289 288 288 289 289 290 290 290 290 291 291 291 291 291 291 291 290 290 290 290 290 290 289 289 289 289 289 289 288 288 288 288 287 287 287 287 287 287 286 286 286 286 286 286
290 290 290 290 289 289 289 289 289 289 289 289 288 288 288 288 288 288 288 288 287 287 287 287 287 287 287 287 287 287 288 288 288 288 288 287 287 287 287 288 288 288 287 288 288 289 289 289 289 290 290 290 290 289 289 289 289 288 289 289 289 289 289 289 289 289 289 289 288 288 288 287 287 287 286 287 286 286 286 286 287 286 286 286 286
290 290 289 289 289 289 289 289 289 289 288 288 288 288 288 288 288 288 287 287 287 287 287 287 287 287 287 287 287 287 287 288 288 288 287 287 286 286 286 286 287 286 287 287 287 287 288 288 288 288 289 289 288 288 288 287 287 287 288 288 288 288 288 288 288 288 288 288 288 288 287 286 286 286 286 286 286 286 286 286 287 286 285 286 286
289 289 289 289 289 289 289 288 288 288 288 288 288 288 288 287 287 287 287 287 287 287 287 287 287 287 286 287 286 286 287 287 288 287 287 286 285 284 285 285 285 286 286 286 287 287 287 287 287 287 287 287 287 287 287 287 286 286 287 287 287 287 287 288 288 288 288 288 287 287 286 286 286 286 285 285 285 285 285 286 286 286 285 286 286
289 289 289 289 288 288 288 288 288 288 288 287 287 287 287 287 287 287 287 287 287 287 287 287 287 286 286 286 286 285 285 286 287 287 287 286 285 284 284 285 285 286 286 286 286 286 286 286 286 286 287 287 287 287 287 286 286 286 286 286 286 287 287 288 288 288 288 287 287 286 286 286 286 285 285 285 285 285 285 285 286 286 285 286 286
289 288 288 288 288 288 288 288 287 287 287 287 287 287 287 287 287 287 287 287 287 287 287 286 286 285 284 285 285 285 285 285 285 284 284 284 284 284 284 285 285 285 286 286 286 286 286 286 286 286 286 286 286 286 286 286 285 285 286 286 286 287 287 287 288 288 288 287 286 286 285 285 285 285 285 285 285 285 285 285 285 285 285 285 285
288 288 288 288 288 288 287 287 287 287 287 287 287 286 287 287 287 287 287 287 287 287 287 286 286 285 284 282 282 283 284 284 284 283 282 282 283 284 284 285 285 285 285 285 285 286 286 286 286 286 286 286 286 286 286 286 285 285 285 286 286 286 287 287 288 287 287 286 286 286 285 285 285 285 285 285 286 285 285 285 284 284 284 284 284
288 288 288 288 287 287 287 287 287 287 287 286 286 286 286 286 286 287 287 287 286 286 286 286 286 285 285 283 281 281 282 283 283 283 283 282 283 284 284 285 285 285 285 285 285 286 286 286 286 286 286 286 286 286 286 285 285 285 285 285 286 286 287 287 287 287 286 286 285 285 285 285 285 285 285 286 285 285 284 284 284 283 283 283 282
288 287 287 287 287 287 287 287 286 286 286 286 286 285 285 285 285 285 286 286 286 286 286 286 285 284 284 284 283 282 282 281 282 282 282 282 282 283 283 284 284 285 285 285 285 285 286 286 286 286 286 286 286 286 285 285 285 285 285 285 286 286 286 286 286 286 286 285 285 285 285 285 286 286 286 285 285 285 284 284 284 283 283 283 282
287 287 287 287 287 286 286 286 286 286 285 285 285 285 284 284 284 284 283 283 284 285 285 286 285 284 283 282 283 283 282 281 280 280 281 282 282 282 282 283 283 284 285 284 285 285 285 285 286 286 286 286 286 285 285 285 285 285 285 285 285 286 286 286 286 286 285 285 285 285 286 286 286 286 285 285 285 285 284 284 284 284 283 282 282
287 287 287 286 286 286 286 286 285 285 285 285 284 284 284 283 283 282 282 281 281 282 283 283 284 283 283 282 281 282 283 282 280 280 281 282 282 282 282 282 283 283 284 284 284 284 285 285 286 286 286 286 285 285 285 285 285 285 285 285 285 285 285 286 286 286 285 285 285 285 286 286 286 285 285 285 285 285 284 284 283 283 282 281 280
287 286 286 286 286 286 286 285 285 284 284 284 283 283 283 282 281 281 281 281 280 280 281 281 281 281 282 282 281 280 281 282 281 281 281 281 280 280 280 281 282 282 283 283 284 284 285 285 286 286 285 285 285 285 285 285 285 285 285 285 285 285 285 286 286 286 286 286 286 286 286 286 286 285 285 285 285 284 283 283 282 281 280 279 279
286 286 286 286 285 285 285 285 284 284 283 283 282 282 281 281 280 280 280 279 279 279 279 280 280 279 279 280 279 279 280 281 281 280 280 279 278 278 279 280 281 281 282 282 283 284 285 285 285 285 285 285 285 285 285 285 285 285 285 285 284 285 285 286 286 286 287 287 287 287 286 286 286 285 285 285 285 284 283 283 282 280 279 278 278
286 285 285 285 285 285 284 284 283 283 282 282 281 281 280 280 279 279 279 279 279 279 278 278 278 278 277 277 277 277 277 277 277 277 277 277 277 277 278 279 280 280 281 282 283 284 285 285 285 285 285 285 285 285 285 285 285 285 285 285 285 285 285 286 286 287 287 287 287 287 286 286 286 285 285 285 285 284 283 282 281 280 279 278 278
285 285 285 285 284 284 284 283 282 281 281 281 280 280 279 279 278 278 278 278 278 278 277 276 276 275 275 274 274 274 273 273 274 275 275 276 276 277 278 278 279 280 281 282 283 283 284 285 285 285 284 284 284 284 284 284 284 284 284 284 285 285 285 286 287 287 287 287 286 286 286 285 285 285 285 285 284 283 283 281 280 279 278 278 278
285 284 284 284 284 283 283 282 281 280 280 280 279 279 278 277 277 276 276 276 276 276 276 276 275 274 273 273 273 272 272 272 274 275 275 275 276 277 277 278 279 280 281 282 283 283 284 284 284 284 284 284 284 284 284 284 285 284 284 284 284 285 285 286 287 287 287 286 286 286 285 285 285 285 285 284 283 282 281 280 279 278 278 277 277
284 284 284 283 283 282 281 280 280 280 279 279 278 277 276 276 276 275 275 275 275 275 275 275 275 274 274 274 274 273 273 273 274 274 274 275 275 276 277 278 279 280 281 282 282 283 284 284 284 284 284 284 284 284 284 284 285 285 284 284 284 285 286 286 287 287 286 286 285 285 285 285 285 284 284 283 282 281 280 279 278 278 277 277 277
284 283 283 282 282 281 280 280 279 279 279 278 277 276 276 275 275 275 275 275 274 274 274 274 274 274 274 274 274 273 272 272 272 273 274 274 275 276 277 278 280 280 281 281 282 282 283 284 284 284 284 284 283 283 284 284 284 285 284 285 285 285 286 286 286 286 286 285 285 285 284 284 284 284 283 282 281 280 279 278 278 277 277 277 277
283 282 282 281 281 280 279 279 279 278 278 277 276 276 275 275 275 274 274 274 274 273 273 273 273 273 273 273 273 273 272 272 272 273 274 275 276 277 278 279 280 280 281 281 282 282 283 284 284 284 284 283 283 283 283 284 284 284 285 285 285 285 286 286 286 286 285 285 285 285 284 284 283 283 282 281 280 279 278 278 277 277 277 276 276
282 282 281 280 280 279 279 278 278 277 277 276 276 275 275 274 274 274 274 274 274 273 273 273 272 272 273 273 273 273 273 273 274 275 275 276 277 278 278 279 280 280 281 281 282 282 282 283 283 284 283 283 283 283 283 284 284 284 285 285 285 285 285 285 285 285 285 284 284 284 284 283 283 282 281 280 279 278 278 277 277 276 276 276 276
281 281 280 280 279 278 278 278 277 277 276 276 275 275 274 274 274 274 274 274 273 273 273 272 272 272 272 272 273 273 273 274 274 275 276 277 277 278 279 279 280 281 281 281 281 281 282 282 283 283 283 283 283 283 283 283 284 284 284 285 285 285 285 285 284 284 284 283 283 283 283 282 281 280 279 278 278 277 277 276 276 276 275 275 275
280 280 279 279 278 278 277 277 276 276 275 275 275 274 274 274 274 274 274 273 273 273 272 272 272 272 272 272 272 272 273 273 274 275 276 277 277 277 278 279 279 280 280 280 280 280 281 281 282 282 282 282 282 283 283 283 283 283 284 284 284 284 284 284 284 283 283 282 282 281 281 280 280 278 278 277 277 276 276 276 275 275 275 275 275
279 279 279 278 278 277 277 276 276 275 275 275 274 274 274 274 273 273 273 273 273 273 272 272 272 272 272 272 272 272 272 273 273 274 274 275 275 275 276 277 277 277 278 278 279 280 280 280 281 281 281 281 281 281 282 282 282 282 282 282 283 283 283 283 282 282 282 281 281 280 279 278 278 277 277 276 276 276 276 276 276 275 275 275 275
279 279 278 277 277 276 276 275 275 275 275 274 274 274 273 273 273 273 273 273 273 273 272 272 272 272 272 272 272 272 273 273 273 273 273 273 274 274 275 276 276 276 277 278 278 279 279 280 280 280 280 280 280 280 280 280 280 281 281 281 281 281 281 281 281 281 280 280 279 279 278 277 276 276 276 276 275 275 275 275 275 275 275 275 275
278 278 277 277 276 275 275 275 274 274 274 274 273 273 273 273 272 273 273 273 273 273 272 272 272 272 272 272 272 272 272 272 273 273 273 273 273 274 274 275 276 276 276 277 278 278 278 278 278 279 279 279 279 279 279 279 279 279 279 279 279 279 279 279 279 279 278 278 277 277 277 276 276 275 275 275 275 275 275 275 275 275 274 274 274
277 277 276 276 275 275 274 274 274 273 273 273 273 273 272 272 272 272 272 272 272 272 272 272 272 272 272 272 272 272 272 272 272 272 273 273 273 274 274 274 275 275 276 276 276 276 276 277 277 277 278 278 278 278 278 278 278 278 278 278 278 277 277 277 277 277 277 276 276 276 276 275 275 275 275 275 275 275 275 274 274 274 274 274 274
Wind_Speed
5 5 5 5 4 4 3 3 2 3 4 5 6 7 7 9 9 10 11 12 13 14 14 15 16 16 17 17 18 18 19 19 20 21 21 22 23 24 25 26 27 28 29 30 30 31 33 34 34 35 35 37 37 37 38 38 39 40 40 39 41 42 41 42 47 57 64 60 55 53 51 49 51 53 53 52 49 46 44 43 43 44 41 38 38
6 6 5 5 4 3 3 2 3 3 4 5 5 6 7 8 9 10 11 12 13 14 15 16 16 17 18 18 19 19 20 20 21 22 23 24 24 25 26 27 28 29 30 31 31 32 33 34 35 35 35 37 38 38 39 39 39 40 40 39 41 43 42 43 46 53 60 62 58 53 51 52 54 56 55 52 49 46 44 44 47 46 40 38 40
7 6 5 4 3 2 2 2 2 2 3 4 5 6 7 8 9 10 12 13 14 15 15 16 17 18 18 19 20 20 21 22 23 24 25 25 26 27 27 29 30 31 31 32 33 33 34 36 36 35 36 38 39 39 39 40 40 40 41 40 40 42 42 42 45 49 55 61 61 54 53 54 55 56 55 52 50 48 47 49 49 44 38 38 41
6 6 5 4 3 2 1 1 1 2 3 5 6 7 9 10 11 12 13 14 15 16 17 18 18 19 20 21 22 22 23 24 25 26 27 28 29 30 30 31 32 33 34 34 35 35 36 37 36 36 36 38 39 39 39 41 41 41 42 42 41 42 41 40 43 47 51 58 61 57 54 54 54 54 53 53 52 50 50 50 47 42 39 40 41
6 6 5 5 4 3 1 1 2 4 5 7 8 10 11 12 13 14 16 16 17 18 19 20 21 21 22 23 24 25 26 27 28 29 30 31 32 33 34 35 35 36 37 38 38 38 39 39 39 37 37 39 40 39 40 40 42 43 44 44 43 42 42 41 41 43 47 52 56 56 53 52 53 53 52 53 53 51 50 49 46 44 43 42 41
7 6 5 5 4 2 1 2 3 5 7 8 10 11 13 14 15 16 17 18 19 20 21 22 23 24 25 26 27 27 28 30 31 32 33 34 35 36 37 38 39 40 41 42 42 42 42 42 42 40 39 40 41 40 40 40 41 43 45 46 45 43 42 42 41 42 45 49 52 53 52 50 51 52 52 52 52 51 49 47 46 46 44 44 43
7 5 5 4 3 1 1 3 5 6 8 10 11 13 14 16 17 18 19 21 22 23 24 25 26 27 27 28 29 30 30 31 33 34 36 37 38 40 41 42 43 44 44 45 46 46 46 46 46 45 43 42 42 41 41 40 41 43 44 45 46 44 42 42 41 41 44 47 49 51 51 50 50 51 52 52 51 49 47 45 46 47 45 45 44
7 5 4 3 2 0 2 4 6 8 10 11 13 15 16 18 19 20 22 23 24 25 26 27 27 28 29 30 30 31 32 33 35 37 38 40 41 42 44 45 46 47 48 48 49 49 50 50 49 49 48 46 45 44 42 41 42 43 44 45 45 45 43 42 41 42 44 46 49 50 50 51 51 51 51 51 51 50 47 46 48 48 46 45 43
7 5 3 2 0 2 3 6 7 9 11 13 14 16 17 19 21 22 23 25 26 27 27 28 29 29 30 31 32 32 33 35 36 38 40 42 44 45 46 48 49 50 51 51 52 52 52 52 52 51 50 49 48 47 45 43 42 43 44 44 45 44 42 41 41 43 44 46 48 49 50 51 51 51 51 52 52 49 45 45 46 46 45 43 41
6 4 2 1 2 3 5 7 9 10 12 14 16 17 19 21 22 24 25 26 27 28 29 30 30 31 32 32 33 33 34 35 37 39 41 43 45 47 49 50 51 52 53 54 54 54 54 54 53 53 52 51 50 49 47 45 44 44 44 43 43 42 40 40 41 43 44 46 48 48 49 51 51 49 51 52 49 45 43 44 45 44 43 40 37
5 3 2 2 4 5 7 9 10 12 14 16 18 20 22 24 25 26 27 28 29 30 31 31 32 32 33 34 35 35 36 37 38 40 42 43 45 47 49 51 52 53 54 55 55 56 55 55 55 54 53 52 51 50 49 48 46 45 44 43 42 39 37 38 40 42 43 45 47 48 48 51 51 49 49 49 46 43 43 44 44 44 42 39 36
4 3 3 4 6 7 9 11 13 15 17 19 21 23 25 26 28 29 30 30 31 31 31 32 32 33 34 35 36 37 37 38 39 40 42 43 45 47 49 51 52 53 54 55 56 56 56 56 56 55 54 52 51 50 49 49 47 46 45 44 42 39 36 35 38 41 43 44 47 49 49 50 50 49 48 47 45 43 44 44 45 44 42 40 38
2 3 4 6 7 9 11 13 16 18 20 22 23 25 27 28 29 30 30 31 31 32 32 33 33 34 35 36 37 38 38 39 40 41 42 44 45 47 50 51 53 54 55 55 56 56 56 57 57 57 55 52 51 50 49 49 48 47 46 44 42 40 37 34 34 37 41 44 47 50 50 49 48 48 47 46 45 44 44 45 45 44 41 39 39
3 4 5 7 9 11 13 15 17 19 21 23 25 26 28 29 30 31 31 32 32 33 34 34 35 36 37 38 39 40 40 40 41 42 43 45 46 48 50 52 53 54 55 55 56 56 55 55 57 58 57 54 52 50 48 48 47 47 46 45 43 41 39 36 35 35 37 41 45 48 50 48 46 45 44 44 46 47 47 47 46 43 40 36 36
3 5 7 9 11 13 15 17 19 21 23 25 27 28 29 30 31 32 33 34 34 35 36 37 37 38 38 40 41 42 42 42 43 44 45 46 48 49 51 52 54 55 56 56 55 55 55 54 55 57 57 56 53 50 48 46 46 46 46 45 44 42 41 39 37 36 37 39 42 44 46 45 43 43 43 44 47 47 46 45 41 37 35 33 34
4 7 9 11 14 16 18 20 22 24 26 27 28 30 30 31 32 34 35 36 36 37 38 39 39 40 41 42 44 45 45 45 45 46 48 49 50 51 52 54 55 56 57 57 56 56 55 55 55 56 57 57 55 52 49 45 44 45 45 44 44 43 43 41 39 38 38 39 40 41 42 41 41 44 45 44 44 43 41 41 36 32 32 33 34
7 9 12 14 16 19 21 23 24 26 27 28 29 30 31 32 33 35 36 37 38 39 40 41 42 43 43 44 46 48 48 48 48 49 50 51 52 53 54 55 56 58 59 58 57 57 57 56 55 56 57 57 55 53 50 46 44 44 44 43 44 45 45 43 41 41 40 39 39 40 40 41 42 43 42 42 41 39 38 39 37 35 34 34 35
9 12 14 16 18 21 22 24 25 26 27 28 29 30 31 32 34 35 37 38 40 41 42 43 43 44 45 45 46 48 50 49 49 50 50 51 52 53 54 55 56 57 58 58 57 57 57 57 56 55 55 55 54 52 50 47 45 45 44 43 45 47 46 45 44 44 42 40 39 39 39 40 40 40 39 37 37 37 37 38 38 36 35 36 36
11 13 15 17 19 21 22 24 25 26 27 28 29 30 31 33 34 35 36 38 39 41 42 43 44 44 45 45 46 47 49 49 48 48 49 49 50 51 52 54 56 56 56 57 57 57 57 57 56 55 54 53 52 51 48 45 44 45 45 44 46 48 47 45 45 45 43 41 40 39 38 37 37 37 35 32 32 34 34 34 35 35 35 37 37
12 14 15 17 19 20 22 23 24 25 27 28 29 30 31 32 34 35 36 38 39 41 42 43 45 46 46 47 47 48 49 49 49 49 48 48 49 50 51 52 53 54 54 55 57 58 58 57 56 55 53 51 50 49 46 44 43 44 45 46 47 49 47 46 46 45 42 41 40 37 36 35 33 32 29 27 29 30 29 30 32 33 33 36 38
13 14 16 17 18 20 21 22 23 25 26 27 28 30 31 33 35 36 37 39 40 42 43 44 46 47 48 48 49 49 50 50 51 50 50 49 49 50 51 52 51 50 51 53 56 57 58 57 56 55 53 50 49 47 45 43 43 44 46 46 47 48 48 47 46 43 40 40 38 36 34 31 29 27 24 23 25 26 26 29 30 29 30 34 36
13 15 16 17 18 20 20 21 23 24 25 27 29 30 32 33 35 36 38 40 41 42 44 45 46 49 50 51 51 51 51 51 51 51 51 51 51 51 52 52 50 47 48 51 54 55 55 55 55 54 52 50 48 47 46 44 44 45 46 46 46 47 47 46 43 40 39 38 36 34 32 29 26 25 23 22 24 25 26 28 28 28 29 31 33
14 16 17 18 19 19 20 21 22 24 26 28 30 31 33 34 35 37 38 40 42 43 45 46 47 50 51 52 53 53 52 52 52 53 52 52 52 52 52 51 49 46 45 48 51 52 52 52 52 51 50 48 48 47 46 46 46 46 47 46 46 45 44 42 40 37 36 35 33 31 29 27 25 24 24 24 25 26 26 27 27 27 29 30 31
15 16 17 18 18 19 20 21 23 25 27 29 30 32 33 35 36 37 39 41 43 45 46 47 49 51 53 54 55 55 54 55 54 54 54 54 54 53 52 50 48 45 44 47 48 49 49 50 49 49 48 48 47 46 46 46 46 46 46 45 44 43 41 39 37 35 34 33 31 29 27 25 25 24 23 25 26 26 26 26 26 26 27 29 30
15 16 17 18 18 20 21 22 24 26 27 29 31 32 34 35 37 38 40 42 44 46 47 48 50 52 53 55 56 56 56 57 57 56 56 56 56 54 52 49 47 45 44 46 47 47 47 48 48 48 48 48 48 47 47 46 45 44 43 42 42 41 39 37 35 34 32 31 29 27 26 25 24 23 23 24 25 25 26 26 26 26 27 27 27
16 17 17 18 19 21 22 24 25 27 28 29 31 33 34 36 38 40 41 42 44 46 47 49 50 52 53 55 56 57 57 58 58 58 58 58 56 53 50 49 47 45 44 44 45 45 46 47 47 47 47 47 48 48 47 46 44 42 41 40 39 37 35 34 33 32 30 29 28 26 25 24 23 22 22 23 24 25 25 26 25 25 25 25 24
17 17 18 19 20 22 24 26 27 28 30 31 32 34 35 37 39 40 42 43 44 46 48 49 51 52 53 54 56 57 58 58 58 58 58 58 55 51 49 49 48 46 45 45 45 45 47 47 47 48 47 47 46 46 45 44 43 41 39 37 34 32 30 29 29 28 28 28 27 25 24 23 22 22 23 24 24 24 24 24 24 24 23 24 25
17 18 19 20 22 23 25 27 28 30 31 32 34 35 36 37 39 40 41 42 44 46 48 50 51 52 52 54 56 57 58 58 58 57 57 56 53 49 48 49 47 45 44 44 44 45 46 46 47 47 47 45 44 43 42 41 40 39 36 33 30 28 26 25 24 25 26 26 25 24 23 22 22 24 24 24 24 25 24 23 23 23 25 27 29
17 19 20 21 23 24 26 27 29 31 32 34 35 36 37 38 40 41 41 42 44 46 48 50 51 51 52 53 54 55 57 58 57 56 56 55 51 46 45 45 45 44 43 42 41 42 44 46 46 46 45 43 41 41 41 39 37 35 33 30 28 26 24 23 23 24 24 23 23 23 23 23 24 25 25 24 24 24 23 22 23 26 28 28 28
18 19 20 22 23 25 27 29 30 32 34 35 37 38 38 39 40 42 43 44 45 47 49 50 51 50 51 53 53 52 54 56 56 55 56 56 53 48 45 43 43 44 44 41 40 42 44 45 46 45 44 42 41 41 40 36 34 33 31 29 27 24 23 23 23 23 22 22 22 22 22 24 24 24 24 24 24 25 24 24 25 27 27 26 26
18 19 21 23 24 27 29 30 32 33 35 36 38 40 41 42 42 44 45 46 47 48 49 50 50 49 49 51 53 53 54 55 53 51 51 51 51 49 47 44 43 43 42 41 40 42 43 44 45 45 43 40 39 39 37 35 33 32 29 27 25 24 23 23 22 21 20 20 20 20 22 23 24 24 24 25 26 27 27 26 26 26 24 23 24
19 20 22 24 26 28 29 31 32 34 35 37 38 40 42 45 46 48 49 49 50 51 51 52 52 51 49 47 47 49 53 54 52 49 47 45 45 45 45 44 42 41 39 38 39 41 41 42 44 43 40 38 37 36 36 34 32 30 27 25 24 24 23 23 22 20 18 18 18 19 21 23 24 25 27 27 28 28 27 26 25 24 23 21 21
19 21 23 25 27 28 30 31 33 34 36 37 39 40 42 45 47 50 52 53 53 54 54 54 54 54 53 50 46 45 47 49 49 48 46 44 43 42 42 42 42 40 38 37 38 40 40 41 41 40 37 35 35 35 34 32 30 27 25 24 23 23 23 22 20 18 17 16 17 18 21 24 25 27 28 28 28 28 27 25 23 22 21 20 19
20 22 24 26 27 28 30 31 32 34 35 37 39 40 41 43 45 49 52 55 56 57 58 57 56 54 54 54 51 49 46 43 42 43 44 44 43 41 41 41 41 40 37 36 37 38 39 38 37 36 35 34 34 34 33 30 28 26 25 24 23 23 23 21 18 17 16 16 17 20 23 25 25 26 26 26 26 25 23 22 21 21 20 19 18
21 23 24 26 27 28 29 31 32 34 35 37 38 40 41 43 45 47 49 51 54 57 59 58 57 55 54 53 51 50 46 42 40 41 43 44 43 40 38 39 40 39 37 36 36 37 37 35 34 33 33 34 34 33 30 27 25 24 24 23 23 23 22 20 17 16 16 16 19 22 24 24 23 23 23 23 22 21 19 19 18 17 16 16 16
22 23 25 26 27 28 29 31 32 34 35 37 38 39 41 43 44 45 46 48 50 53 55 57 57 56 54 51 48 46 45 43 43 43 43 42 39 35 33 35 37 37 37 36 36 36 35 33 32 31 32 32 31 28 26 24 23 22 22 22 22 22 22 19 16 14 14 16 19 21 21 21 20 21 21 20 18 17 16 16 15 14 14 14 15
23 24 25 26 27 28 30 31 32 34 35 37 38 40 41 42 42 43 45 47 48 50 53 55 56 56 54 51 48 45 44 44 44 43 42 40 35 31 30 33 34 36 38 37 36 35 33 31 30 30 30 29 26 24 23 22 20 20 20 20 20 20 20 17 13 12 13 16 17 17 16 17 17 18 20 19 18 16 16 15 14 15 15 15 15
22 23 24 25 27 29 30 32 33 34 35 36 37 39 40 41 41 42 43 45 47 49 51 53 53 54 53 51 47 45 44 44 44 44 43 41 37 34 33 34 34 37 39 37 34 33 32 30 29 29 28 24 22 21 20 18 17 17 18 18 18 19 18 15 12 13 15 16 15 14 15 15 16 18 19 18 17 17 16 15 15 16 17 17 16
22 23 24 25 27 28 30 32 33 33 34 35 36 37 38 39 40 41 43 45 47 48 50 51 52 52 51 49 46 45 44 45 46 47 45 43 39 37 36 36 36 37 37 35 33 32 31 29 27 26 23 19 18 19 17 15 14 14 15 16 16 16 15 13 13 16 17 15 15 15 15 16 17 18 19 18 17 17 16 16 16 16 16 16 16
21 22 23 25 26 28 29 30 31 31 33 34 35 35 36 37 38 40 42 44 46 47 48 49 49 49 47 45 43 42 42 44 45 45 43 42 41 39 37 37 36 36 34 32 30 30 29 26 23 21 18 16 17 17 14 12 12 12 13 14 15 15 14 13 15 17 16 16 16 16 15 16 17 18 18 18 17 17 16 16 16 16 15 14 14
21 22 23 24 26 27 28 29 29 30 31 32 33 33 34 35 36 38 40 41 43 45 46 47 47 45 44 42 39 36 36 39 40 40 40 40 40 40 39 37 35 33 31 29 27 27 26 22 19 17 16 15 15 14 11 9 8 9 10 11 12 12 13 14 16 16 15 16 16 16 16 16 17 18 18 19 18 18 17 17 16 16 16 16 16
20 21 23 24 25 26 27 27 28 29 30 31 31 31 32 33 34 35 37 39 41 42 44 45 45 44 42 40 37 34 33 35 37 38 39 40 40 40 39 35 31 29 28 27 26 25 23 20 17 16 15 14 13 11 8 5 5 5 6 7 9 11 14 16 16 16 16 16 16 16 16 17 17 17 18 19 20 20 20 18 18 18 18 17 16
20 21 22 23 24 25 25 26 27 28 29 29 29 29 30 32 33 34 35 37 39 40 42 43 44 43 42 40 37 34 34 35 36 37 38 39 38 37 35 31 27 26 25 24 24 23 20 17 16 15 13 12 11 9 6 3 1 1 3 6 9 12 14 14 15 15 16 16 15 15 16 16 16 17 19 20 21 21 20 20 20 19 18 17 16
19 20 21 22 22 23 23 24 25 26 26 27 27 28 29 30 31 32 33 35 37 39 40 40 41 41 41 39 37 35 34 34 34 35 35 35 34 32 30 27 25 24 23 21 21 20 17 14 14 13 11 10 9 7 5 4 3 4 5 7 8 10 11 12 14 15 14 14 14 15 15 16 17 18 20 20 21 20 20 19 19 18 17 16 15
18 19 20 20 21 21 22 22 23 24 25 26 26 27 28 28 30 31 32 33 35 37 38 38 38 39 39 38 36 35 34 33 32 32 31 31 30 28 27 25 23 22 20 18 17 16 14 11 11 12 12 11 9 7 6 5 5 7 8 9 10 10 11 12 13 14 13 13 13 14 15 16 17 18 19 19 19 18 18 17 17 16 15 15 14
17 18 19 19 19 20 20 21 22 22 23 24 25 26 27 28 29 29 30 32 34 35 36 37 37 37 37 36 35 34 33 33 32 30 29 28 26 25 24 23 21 19 16 14 14 13 11 9 11 12 13 12 11 9 7 6 6 7 9 10 11 12 12 13 13 14 14 14 13 13 14 15 17 18 18 18 18 17 16 16 15 14 14 13 12
16 17 18 18 18 19 20 20 21 22 23 23 24 25 26 27 27 28 29 30 31 33 34 35 35 35 35 34 34 33 33 32 31 29 27 25 24 23 23 21 18 15 12 10 9 9 9 9 11 14 15 15 13 10 9 8 7 8 8 9 10 11 12 13 13 14 14 14 13 13 13 14 15 16 17 16 16 16 15 15 14 13 13 13 14
15 16 17 17 18 19 19 20 21 21 22 23 24 25 25 26 26 27 27 29 30 31 32 33 34 34 33 33 32 32 31 30 30 28 26 24 22 21 20 17 15 12 9 7 7 8 10 12 14 16 17 15 11 8 7 6 6 6 7 7 8 9 10 11 12 13 14 14 14 14 14 13 13 14 14 14 14 14 13 13 13 13 14 15 15
15 16 16 16 17 18 19 19 20 21 22 22 23 24 24 24 25 25 26 27 28 29 30 31 32 33 33 32 31 31 30 29 28 27 25 23 21 18 17 15 13 12 10 10 11 12 13 15 15 14 12 8 5 4 5 5 5 5 6 6 6 7 8 10 10 11 11 12 12 13 13 13 13 13 12 12 12 12 12 13 13 14 15 15 15
15 15 15 16 16 16 17 17 18 19 19 20 21 22 22 23 23 24 25 26 26 27 27 28 30 31 31 31 31 30 30 28 27 25 23 22 20 18 16 15 14 13 13 13 13 14 14 13 10 8 5 2 1 3 4 5 5 6 6 6 6 6 7 8 9 9 10 10 10 10 11 11 12 12 12 12 13 13 13 14 14 15 15 15 15
14 14 14 14 14 14 15 15 15 16 17 18 19 20 21 21 22 22 23 24 25 25 26 26 27 28 29 29 29 28 28 28 26 24 22 21 19 18 17 16 15 14 14 13 12 11 10 8 5 3 2 0 2 3 4 4 4 5 5 6 6 6 7 7 8 8 9 9 9 9 9 10 10 11 11 12 13 13 14 14 15 15 15 15 15
Wind_Direction
149 147 140 136 127 117 106 85 62 34 15 4 356 350 345 342 341 341 342 342 342 340 340 339 337 336 335 334 333 331 330 328 326 325 323 322 321 319 318 316 314 313 312 311 311 310 309 308 308 309 309 306 304 302 300 297 292 287 282 277 274 272 271 269 266 272 283 286 281 281 283 281 281 283 286 291 293 292 290 289 290 291 286 281 280
156 151 143 136 126 112 94 63 38 19 3 354 348 342 339 339 339 340 340 340 340 339 337 336 336 335 334 333 333 332 331 330 329 328 326 325 324 322 321 320 318 317 316 315 315 314 312 311 311 312 312 309 308 307 305 304 299 295 291 284 278 276 272 270 270 270 278 285 283 280 281 281 282 284 287 289 291 289 286 286 289 290 285 279 279
160 154 147 139 125 106 81 45 21 6 354 345 344 344 343 344 344 344 343 342 340 339 338 338 337 336 336 335 334 334 333 332 331 330 328 327 325 324 323 322 320 320 319 318 318 317 315 314 314 315 314 310 309 309 308 307 304 300 298 292 285 282 277 270 269 269 273 279 280 279 279 281 282 285 286 288 289 287 285 288 291 289 283 279 279
162 162 160 157 150 139 124 68 21 1 355 351 352 352 351 350 349 346 344 342 341 339 338 338 336 336 335 335 335 334 333 332 331 330 329 327 326 325 324 323 322 321 320 320 320 319 318 317 317 318 315 312 311 311 310 308 307 304 301 299 294 290 286 277 271 270 271 275 279 281 281 282 284 285 285 286 287 285 287 293 292 287 283 281 280
168 171 173 171 164 153 138 53 9 358 356 355 352 350 348 346 344 341 340 338 337 336 335 334 334 333 333 333 333 333 332 331 330 329 328 327 326 325 324 323 322 322 321 321 321 320 319 319 319 319 317 314 313 313 311 308 307 305 302 301 299 296 293 287 280 276 274 275 279 283 283 282 283 283 283 285 285 284 289 294 290 285 283 282 281
172 175 173 167 158 145 100 8 357 352 351 349 345 342 340 338 335 334 332 332 331 331 331 331 331 331 331 331 331 331 331 330 329 328 327 326 325 324 323 322 322 321 320 320 319 319 319 318 319 318 317 315 314 314 312 309 306 304 302 301 300 298 294 290 285 281 277 276 278 281 282 281 281 281 282 283 282 283 288 292 289 285 283 282 281
177 179 178 170 160 149 4 344 342 342 340 337 334 332 330 329 328 328 328 327 327 327 327 327 327 328 328 328 328 328 329 328 327 327 326 325 323 322 321 320 319 318 318 317 317 317 317 317 317 317 317 316 315 314 312 310 307 305 303 301 300 298 294 292 288 283 280 279 279 279 280 281 280 279 279 280 279 281 285 289 288 285 283 281 279
186 187 186 178 167 161 335 334 333 332 330 328 327 326 326 326 326 326 326 325 325 325 324 324 324 324 324 324 324 325 325 325 325 324 324 323 322 320 319 318 317 316 315 315 315 314 314 314 314 314 315 315 315 314 313 311 307 305 303 301 299 297 294 291 288 284 281 280 279 279 280 280 278 276 277 278 278 280 285 289 289 284 281 280 279
188 189 195 200 266 337 335 332 330 330 328 327 326 325 325 325 324 324 323 323 323 322 322 322 322 321 321 322 322 322 323 323 323 323 322 321 320 319 317 316 316 315 314 313 313 313 312 312 311 312 312 312 312 312 312 310 307 305 304 301 297 295 293 289 286 283 281 279 279 279 278 277 276 275 275 277 278 281 286 289 286 281 278 278 275
188 196 218 279 335 340 337 333 331 330 327 326 325 324 323 322 321 321 320 320 320 320 320 321 321 321 321 321 321 321 321 322 322 321 321 320 319 317 316 315 314 314 313 312 312 311 311 311 311 311 311 310 311 311 310 309 307 304 302 299 295 292 290 287 283 280 279 278 277 277 276 275 275 274 275 277 280 281 285 288 284 278 274 271 264
196 216 255 313 335 335 333 330 328 327 325 325 324 323 322 321 321 320 320 320 320 320 320 320 320 320 320 320 320 319 320 321 321 320 320 319 319 317 315 314 313 313 313 312 311 311 311 311 311 311 312 312 313 312 311 309 308 305 302 298 294 290 286 282 280 279 279 279 278 277 275 274 275 275 275 276 278 280 285 288 282 273 268 262 255
216 254 298 324 330 331 330 328 327 326 325 324 323 322 322 321 321 320 320 320 319 318 319 318 318 319 318 317 317 317 318 319 319 318 318 318 318 316 314 313 313 312 312 312 311 311 312 312 312 312 314 315 315 315 314 312 310 306 303 300 297 293 287 281 277 277 278 279 279 278 276 275 276 276 275 274 277 282 287 287 279 269 264 260 255
256 295 316 325 328 330 328 327 326 324 323 323 322 322 321 321 320 319 318 317 317 316 316 316 316 316 316 315 315 314 315 317 317 317 316 316 317 316 313 312 312 311 311 311 311 311 312 312 311 311 313 316 317 317 317 315 312 308 305 302 299 296 291 284 277 274 274 276 277 276 276 277 277 277 277 276 277 282 284 282 275 267 263 259 254
284 305 317 324 325 326 325 324 323 322 322 322 322 322 321 320 319 318 316 316 316 315 315 315 315 315 315 315 313 313 314 315 315 315 314 314 315 314 312 311 311 310 310 310 310 310 311 311 311 311 313 315 317 319 319 316 312 308 305 302 300 297 293 287 281 276 273 273 275 275 275 276 278 282 283 280 279 281 281 279 274 268 264 257 248
289 309 316 320 321 322 323 323 323 323 324 324 324 323 322 320 319 317 316 316 316 316 316 315 314 315 315 314 313 312 313 314 315 314 313 313 313 312 311 310 309 309 308 309 310 310 310 310 310 311 312 314 317 319 319 317 312 307 303 300 298 296 293 289 285 281 277 274 276 277 275 274 279 284 285 283 281 281 279 276 272 267 259 247 235
301 314 319 321 323 325 326 327 327 327 327 326 324 323 320 319 318 317 316 316 316 316 316 315 315 315 315 315 314 312 312 314 314 313 312 312 311 310 310 309 308 308 307 308 309 309 310 310 310 312 312 314 317 318 318 317 313 308 303 300 297 295 292 290 288 285 282 279 277 278 276 275 276 277 279 280 279 278 274 267 259 251 242 232 224
311 318 323 326 328 330 330 331 330 328 327 324 322 320 319 319 318 317 317 316 316 316 316 315 315 316 316 316 315 313 313 313 314 314 312 312 311 310 309 308 307 306 306 308 309 309 309 309 310 311 312 312 315 316 316 315 313 309 305 300 298 295 292 293 292 289 287 285 281 278 277 276 275 275 276 278 277 273 265 256 248 241 232 223 216
318 323 327 329 330 331 330 330 328 325 323 321 319 319 318 318 318 317 317 317 316 316 316 315 315 315 315 316 315 314 313 313 314 314 313 312 311 310 309 307 306 305 305 306 306 306 306 307 307 309 309 310 311 312 313 313 312 310 307 302 299 296 294 295 295 293 292 290 285 282 278 277 277 277 277 277 274 268 260 253 249 241 228 218 211
319 323 328 329 329 329 327 325 322 320 318 317 317 317 317 317 317 317 317 317 316 316 316 316 315 314 315 315 314 314 313 313 313 314 313 312 311 310 309 308 306 306 305 304 303 303 303 303 305 306 306 307 308 308 309 310 308 307 307 303 299 296 296 298 297 296 295 292 288 286 282 279 278 277 276 274 270 265 261 255 250 241 226 214 207
318 323 327 326 325 324 320 318 317 315 315 315 315 317 318 317 318 317 317 318 317 316 317 317 316 315 315 315 315 314 314 314 314 314 314 313 312 311 310 309 308 307 305 303 302 301 302 302 303 304 305 306 306 307 307 306 305 304 303 300 297 296 298 298 296 295 295 292 289 287 285 282 280 277 275 271 265 261 256 248 244 241 229 215 207
318 321 322 320 318 316 313 312 312 312 314 315 316 318 319 319 319 319 319 318 317 317 317 317 316 315 315 315 314 314 315 315 314 314 314 314 313 311 310 310 310 308 305 303 302 301 302 302 302 303 304 305 306 306 305 304 303 301 299 297 297 297 298 296 295 294 292 289 288 288 287 286 282 276 270 262 255 249 241 234 233 232 227 219 208
315 316 316 313 311 310 309 310 311 313 316 317 317 319 320 319 319 319 318 318 317 317 318 317 317 316 315 315 315 315 315 315 314 314 313 313 313 312 311 310 310 308 305 303 302 301 301 301 301 302 303 305 305 305 304 303 300 298 297 296 295 295 295 293 293 292 288 286 287 289 288 286 280 271 261 248 237 229 223 221 221 217 217 218 214
310 310 308 307 306 306 308 311 314 316 318 318 318 319 319 319 319 319 319 319 318 319 319 319 318 317 317 316 316 316 316 315 314 314 313 313 312 311 310 309 308 307 304 302 300 299 299 299 300 301 302 303 304 304 303 301 299 297 296 295 293 293 292 291 290 288 283 281 284 286 284 279 271 262 252 238 226 219 215 214 213 211 209 211 212
303 302 302 302 303 307 311 315 317 318 319 319 319 319 320 320 320 320 320 320 320 320 320 320 320 319 318 317 317 317 317 316 315 315 315 315 313 311 310 309 307 305 303 301 300 300 299 300 301 302 302 302 303 303 302 300 299 298 297 295 293 291 290 288 287 282 277 275 278 278 273 267 260 252 243 231 220 213 210 208 207 207 208 207 206
296 297 299 303 307 312 315 317 318 319 320 320 320 320 321 321 321 321 322 322 322 321 321 320 320 319 318 318 317 317 317 316 315 315 315 315 314 312 310 309 307 306 304 302 301 301 303 304 305 305 306 306 306 305 303 302 301 300 299 297 294 291 289 286 282 276 271 270 271 269 264 259 253 243 233 224 216 210 207 204 200 200 203 202 199
295 298 302 308 313 315 317 318 319 320 321 321 321 321 322 322 322 322 322 322 321 321 320 320 319 318 318 318 317 317 317 316 315 315 315 314 313 311 309 307 306 306 304 301 301 303 305 307 307 306 307 307 305 304 304 304 304 304 302 299 295 292 288 283 277 271 266 264 265 263 259 254 245 232 221 215 211 207 204 200 194 193 198 198 190
297 302 308 313 316 318 319 320 321 321 321 321 321 322 322 322 321 321 321 321 321 321 320 320 319 318 318 317 316 316 316 315 315 315 315 313 311 310 308 306 306 307 306 304 305 307 307 307 306 305 305 305 304 303 304 305 306 306 306 303 300 295 288 279 273 266 261 261 263 260 253 244 229 216 209 207 205 201 200 200 194 188 189 187 175
301 307 312 315 318 319 320 320 320 320 321 321 321 321 321 321 320 320 321 321 321 320 320 318 318 318 317 316 315 315 314 314 315 315 313 311 309 308 307 306 306 306 305 304 304 305 304 303 302 303 304 304 302 300 300 302 304 305 306 305 303 297 287 275 265 258 256 259 261 255 243 229 216 207 202 200 197 194 193 198 194 183 178 178 169
304 309 313 316 319 320 319 319 319 320 320 320 320 320 320 319 319 320 321 322 321 320 319 318 318 318 316 315 314 313 312 313 313 312 311 310 308 305 303 303 303 302 299 298 298 298 297 297 297 298 300 300 298 295 297 301 303 304 305 303 300 294 282 269 259 254 256 259 257 248 235 221 211 203 197 193 191 186 185 187 183 172 170 174 170
306 310 315 318 319 319 318 319 319 319 320 320 319 319 319 319 319 320 321 321 321 319 318 318 318 318 316 315 315 313 311 312 313 312 311 311 310 307 303 300 299 298 297 296 294 292 291 292 293 294 295 295 293 293 296 300 301 303 304 301 295 285 274 265 258 255 258 259 252 242 230 217 207 199 194 188 181 174 172 173 171 166 167 171 167
308 314 318 318 318 318 317 318 318 319 320 320 319 319 319 319 320 321 321 320 320 319 318 318 318 319 318 316 316 315 314 314 313 311 310 311 311 309 306 302 299 297 297 297 293 290 288 288 289 291 292 290 288 290 295 298 299 301 301 297 287 275 267 263 259 257 259 256 247 235 223 212 202 192 186 181 173 167 166 166 166 165 166 168 165
313 317 318 317 316 316 316 317 318 319 319 319 319 319 320 320 320 320 320 321 320 319 319 319 319 321 321 320 317 315 315 314 312 310 310 311 311 308 305 303 301 299 298 296 291 288 286 285 286 288 288 286 285 290 295 297 299 300 297 289 279 270 264 260 257 258 258 251 240 227 214 204 194 184 179 175 171 167 165 164 164 163 162 162 161
315 316 315 314 314 315 316 317 318 319 319 319 319 320 321 322 322 321 320 320 320 320 321 322 322 323 322 321 318 315 314 314 313 312 313 313 311 308 306 304 302 300 297 293 288 286 285 285 285 286 285 283 286 291 295 297 298 297 290 279 271 266 261 255 252 253 252 244 234 220 205 196 188 181 178 177 173 167 163 162 162 161 159 157 156
312 311 311 312 312 313 315 317 317 318 319 320 320 322 323 323 323 323 322 321 321 322 322 324 324 324 322 320 319 319 318 316 314 314 314 312 310 309 306 302 301 299 296 291 287 286 286 286 285 283 281 284 289 292 294 296 297 292 282 273 267 261 256 250 246 246 243 233 221 208 197 191 188 184 180 177 173 168 164 164 163 161 160 159 158
307 307 308 309 311 313 315 316 318 319 320 321 322 323 324 325 325 326 326 326 325 324 323 323 323 323 323 322 322 321 320 319 317 315 314 313 313 312 307 301 300 301 300 296 292 289 288 288 286 283 283 287 291 292 291 293 294 288 279 272 265 257 250 246 244 242 237 223 209 200 194 191 188 186 182 177 173 170 167 166 165 164 165 166 167
303 305 307 309 311 314 316 318 320 320 320 322 324 325 326 328 328 329 328 328 326 325 324 323 324 323 323 324 325 323 320 318 318 317 315 315 317 316 309 302 302 303 304 302 299 294 291 289 287 286 288 290 291 291 291 291 290 285 279 272 264 255 249 246 245 240 227 210 198 194 193 192 190 187 182 177 173 173 172 170 168 169 172 174 175
302 305 308 310 313 316 319 320 320 321 322 325 327 329 329 329 330 330 329 328 328 327 326 326 326 326 325 326 328 326 321 317 317 318 319 321 322 319 312 307 305 305 305 305 304 299 294 290 288 290 292 293 291 290 290 289 287 283 278 272 263 253 247 245 242 225 201 189 186 186 189 190 190 188 185 181 177 176 177 177 176 176 176 178 180
303 306 309 313 316 319 320 320 321 323 327 330 331 331 330 330 330 330 330 331 331 330 330 329 328 328 328 329 329 327 323 320 320 321 323 325 325 322 317 313 309 306 305 306 306 301 294 290 291 293 294 292 291 290 289 287 285 281 276 269 259 249 244 240 223 196 180 176 179 183 185 186 187 187 187 186 185 184 184 185 186 184 181 181 182
304 308 312 316 318 319 320 321 323 327 331 332 331 330 330 330 332 332 333 333 333 332 332 330 329 329 330 331 332 332 329 325 324 324 324 324 323 321 318 314 311 308 307 308 307 301 294 293 296 296 293 290 289 288 287 285 283 280 275 267 255 245 239 227 198 179 175 178 182 182 182 184 186 187 188 189 191 194 193 192 191 190 189 187 185
306 311 314 316 318 319 321 324 327 331 332 331 330 330 331 333 335 335 335 336 335 334 333 330 328 329 330 331 333 333 327 321 321 323 323 322 322 320 319 317 315 312 310 310 309 303 298 297 298 295 291 290 288 287 287 287 285 280 273 262 250 240 232 210 183 174 179 184 184 183 184 185 187 189 190 190 192 196 197 194 190 189 190 190 190
307 311 314 317 319 321 324 328 331 333 332 330 331 332 334 336 337 337 338 338 337 335 333 331 329 330 330 331 333 332 323 318 321 324 324 323 322 320 318 317 315 314 313 313 310 304 299 298 299 297 294 291 286 286 289 291 288 281 267 251 239 229 212 189 175 177 185 187 185 185 185 186 188 191 191 190 190 190 190 191 190 189 188 190 193
308 312 316 319 321 324 328 331 332 332 331 331 333 335 336 337 339 339 339 339 339 337 334 332 331 331 332 332 334 333 328 326 327 327 324 321 317 316 316 316 315 315 315 314 308 301 297 300 303 301 296 290 285 286 292 295 289 277 252 227 208 194 183 176 178 186 191 190 190 190 188 187 190 192 191 191 190 187 186 188 190 191 193 195 196
310 315 319 321 324 327 330 331 330 330 331 332 335 337 338 339 340 340 340 341 341 340 338 335 334 333 333 334 334 334 333 330 326 322 318 315 315 316 317 317 316 315 316 314 306 297 294 299 305 304 299 293 285 280 278 274 260 221 189 176 172 170 172 179 188 196 197 196 197 195 192 191 193 192 190 190 189 188 188 190 192 193 196 198 197
312 317 320 322 325 328 329 329 329 330 332 334 335 338 339 340 340 341 342 343 344 343 341 339 337 336 336 336 337 336 333 328 323 319 317 316 317 318 319 318 317 316 315 313 305 295 289 293 301 305 307 303 294 280 261 233 197 171 162 166 172 178 184 194 201 205 207 207 205 201 197 194 191 189 188 188 189 190 191 192 194 195 195 196 197
314 317 320 323 324 325 325 327 329 331 333 335 336 338 339 340 340 341 343 344 345 345 344 342 342 341 341 340 339 337 335 330 327 324 323 321 321 321 321 321 320 317 315 313 303 291 282 283 294 303 308 306 298 287 267 239 209 189 183 185 190 195 199 204 208 209 210 211 210 207 202 195 188 186 186 186 188 191 192 192 194 194 195 197 199
314 317 319 320 321 322 324 327 330 332 334 335 335 337 338 339 340 342 344 346 347 347 347 346 344 344 345 345 344 343 342 339 335 332 329 327 327 327 328 328 325 322 321 315 298 281 272 277 291 302 307 304 294 282 269 253 235 219 210 206 206 208 207 208 208 208 207 206 204 200 196 189 184 183 185 186 187 189 190 191 193 193 195 199 203
313 315 316 316 318 321 324 327 330 332 332 332 333 334 336 337 339 341 344 347 348 348 348 348 347 345 346 347 348 350 351 350 348 344 340 338 339 341 341 341 339 336 332 319 295 281 282 290 297 303 307 304 293 275 260 252 245 237 231 225 222 220 216 212 207 203 197 191 185 182 183 183 181 182 184 187 189 190 190 191 193 195 199 204 208
308 310 311 313 317 321 324 327 328 329 328 329 330 332 334 335 338 340 343 346 347 348 349 350 349 348 347 346 347 350 353 356 357 356 354 353 353 354 355 355 355 353 347 331 312 306 307 307 308 309 309 305 290 263 245 237 230 226 222 217 215 215 209 202 196 191 186 180 175 172 175 179 183 186 189 191 193 195 197 199 202 205 209 212 215
303 305 308 313 316 319 322 324 325 326 327 328 329 332 334 335 337 339 341 343 345 347 348 350 350 350 349 348 347 347 349 352 355 357 359 358 358 358 358 358 357 353 346 336 328 323 319 317 316 315 311 301 272 223 203 194 188 186 183 181 183 187 186 182 179 178 178 179 178 176 177 181 185 190 194 195 197 201 204 207 211 214 216 218 220
298 302 307 311 314 318 321 323 325 328 330 331 332 335 337 339 339 340 341 342 343 345 347 348 350 350 350 350 350 349 349 349 349 350 351 351 351 352 352 351 349 346 342 336 331 328 324 321 320 320 318 313 152 152 155 158 160 161 160 159 162 168 173 175 176 177 179 181 183 185 187 190 193 196 199 202 205 208 211 214 217 219 220 222 223
296 301 307 310 314 318 322 325 329 332 334 335 337 338 340 342 343 345 346 345 345 345 345 346 348 349 349 350 352 352 352 351 349 348 346 344 344 344 343 342 340 340 337 333 331 328 324 321 320 317 311 140 131 138 148 156 163 165 166 166 168 172 177 182 184 186 188 191 192 194 197 200 203 207 211 214 217 219 220 221 222 223 224 225 227